Flight Track Log - Related Links

Times and Time Zones

All times are in EDT time to prevent confusion due to time zone crossing. See the FFT750 flight status page for this flight to view local times or setup timezone preferences in your user account.

Time Position Orientation Groundspeed Altitude Reporting Facility
EDT Latitude Longitude Course Direction KTS MPH feet Rate Location/Type
Sun 01:06:32 PM 39.9308 -104.6419 79° East 196 226 7,800  Level Denver Center
Sun 01:07:34 PM 39.9497 -104.5492 75° East 276 318 9,500 1,065 Climbing Denver Center
Sun 01:08:36 PM 39.9539 -104.4322 87° East 297 342 10,000 1,065 Climbing Denver Center
Sun 01:09:38 PM 39.9633 -104.3169 84° East 322 371 11,700 1,210 Climbing Denver Center
Sun 01:10:40 PM 39.9781 -104.1844 82° East 341 392 12,500 1,355 Climbing Denver Center
Sun 01:11:42 PM 39.9925 -104.0494 82° East 371 427 14,500 1,984 Climbing Denver Center
Sun 01:12:00 PM 39.9992 -103.8221 79° East  Level FlightAware Approximate
Sun 01:12:44 PM 40.0064 -103.9078 83° East 391 450 16,600  Level Denver Center
Sun 01:13:46 PM 40.0233 -103.7519 82° East 407 468 18,800 2,081 Climbing Denver Center
Sun 01:14:48 PM 40.0481 -103.6025 78° East 408 470 20,900 1,935 Climbing Denver Center
Sun 01:15:50 PM 40.0722 -103.4533 78° East 437 503 22,800 1,790 Climbing Denver Center
Sun 01:16:52 PM 40.1008 -103.2756 78° East 449 517 24,600 1,742 Climbing Denver Center
Sun 01:17:54 PM 40.1258 -103.1175 78° East 463 533 26,400 1,776 Climbing Denver Center
Sun 01:18:57 PM 40.1561 -102.9317 78° East 467 537 28,300 1,968 Climbing Denver Center
Sun 01:19:59 PM 40.1806 -102.7703 79° East 472 543 30,500 2,032 Climbing Denver Center
Sun 01:21:01 PM 40.2092 -102.5906 78° East 453 521 32,500 1,742 Climbing Denver Center
Sun 01:22:03 PM 40.2325 -102.4333 79° East 459 528 34,100 1,742 Climbing Denver Center
Sun 01:23:05 PM 40.2600 -102.2536 79° East 454 522 36,100 1,548 Climbing Denver Center
Sun 01:24:07 PM 40.2833 -102.1008 79° East 450 518 37,300 1,210 Climbing Denver Center
Sun 01:25:09 PM 40.3100 -101.9250 79° East 443 510 38,600 823 Climbing Denver Center
Sun 01:26:11 PM 40.3317 -101.7728 79° East 443 510 39,000 194 Climbing Denver Center
Sun 01:27:13 PM 40.3578 -101.5972 79° East 441 507 39,000  Level Denver Center
Sun 01:28:28 PM 40.3833 -101.4219 79° East 439 505 39,000  Level Denver Center
Sun 01:29:30 PM 40.4072 -101.2506 80° East 433 498 39,000  Level Denver Center
Sun 01:30:32 PM 40.4281 -101.1014 80° East 436 502 39,000 48 Level Denver Center
Sun 01:31:34 PM 40.4533 -100.9258 79° East 441 507 39,100 48 Climbing Denver Center
Sun 01:32:36 PM 40.4844 -100.7792 74° East 439 505 39,100 -48 Level Denver Center
Sun 01:33:38 PM 40.5206 -100.6092 74° East 438 504 39,000 -48 Descending Denver Center
Sun 01:34:40 PM 40.5517 -100.4625 74° East 438 504 39,000  Level Denver Center
Sun 01:35:42 PM 40.5878 -100.2903 75° East 441 507 39,000  Level Denver Center
Sun 01:37:46 PM 40.6550 -99.9711 74° East 438 504 39,000  Level Denver Center
Sun 01:38:48 PM 40.6886 -99.8056 75° East 437 503 39,000  Level Denver Center
Sun 01:39:50 PM 40.7203 -99.6525 75° East 434 499 39,000  Level Denver Center
Sun 01:40:42 PM 40.7456 -99.5322 74° East 432 497 39,000 -548 Level Minneapolis Center
Sun 01:42:56 PM 40.8142 -99.1883 75° East 443 510 37,300 -965 Descending Denver Center
Sun 01:44:01 PM 40.8450 -99.0261 76° East 443 510 35,800 -1,087 Descending Minneapolis Center
Sun 01:45:03 PM 40.8778 -98.8353 77° East 444 511 35,000 -387 Descending Minneapolis Center
Sun 01:46:05 PM 40.9014 -98.6747 79° East 446 513 35,000  Level Minneapolis Center
Sun 01:47:07 PM 40.9278 -98.5136 78° East 447 514 35,000  Level Minneapolis Center
Sun 01:48:09 PM 40.9550 -98.3339 79° East 450 518 35,000  Level Minneapolis Center
Sun 01:49:11 PM 40.9794 -98.1742 78° East 447 514 35,000 -823 Level Minneapolis Center
Sun 01:50:13 PM 41.0039 -98.0139 79° East 446 513 33,300 -1,984 Descending Minneapolis Center
Sun 01:51:15 PM 41.0289 -97.8475 79° East 457 526 30,900 -2,177 Descending Minneapolis Center
Sun 01:52:17 PM 41.0531 -97.6886 79° East 446 513 28,800 -2,032 Descending Minneapolis Center
Sun 01:53:19 PM 41.0758 -97.5356 79° East 430 495 26,700 -2,129 Descending Minneapolis Center
Sun 01:54:21 PM 41.0992 -97.3717 79° East 415 478 24,400 -2,032 Descending Minneapolis Center
Sun 01:55:23 PM 41.1194 -97.2300 79° East 399 459 22,500 -2,085 Descending Minneapolis Center
Sun 01:56:42 PM 41.1306 -97.0311 86° East 374 430 19,500 -2,371 Descending Minneapolis Center
Sun 01:57:27 PM 41.1519 -96.9306 74° East 372 428 17,600 -2,333 Descending Minneapolis Center
Sun 01:58:30 PM 41.1600 -96.7953 85° East 369 425 15,300 -2,112 Descending Minneapolis Center
Sun 01:59:32 PM 41.1686 -96.6647 85° East 360 414 13,200 -2,356 Descending Minneapolis Center
Sun 02:00:45 PM 41.1708 -96.5042 89° East 334 384 10,000 -1,935 Descending Minneapolis Center
Sun 02:01:36 PM 41.1839 -96.4222 78° East 328 377 9,200 -1,377 Descending Minneapolis Center
Sun 02:02:47 PM 41.1869 -96.2919 88° East 265 305 7,200 -1,645 Descending Minneapolis Center
Sun 02:03:40 PM 41.1967 -96.2078 81° East 269 310 5,800 -1,670 Descending Minneapolis Center
Sun 02:04:42 PM 41.2031 -96.1125 85° East 264 304 4,000 -1,319 Descending Minneapolis Center
Sun 02:06:01 PM 41.2094 -95.9903 86° East 231 266 2,700 -629 Descending Minneapolis Center
Sun 02:06:46 PM 41.2119 -95.9450 86° East 227 261 2,700 -393 Level Minneapolis Center
Sun 02:07:48 PM 41.2264 -95.8928 70° East 182 209 2,000 -532 Descending Minneapolis Center
Sun 02:08:50 PM 41.2619 -95.8631 32° Northeast 145 167 1,600 -484 Descending Minneapolis Center
Sun 02:09:52 PM 41.2928 -95.8861 331° Northwest 133 153 1,000 -581 Descending Minneapolis Center
Sun 02:11:00 PM 41.3000 -95.8833 333° Northwest  Level FlightAware Approximate

Login

Don't have an account? Register now (free) for customized features, flight alerts, and more!